EW2067 Weather Reports


time (UTC)temp
C
wind
direction
speed
KPH
gust
KPH
rain 1hr
cm
rain 24hr
cm
rain mn
cm
humidity
%
barometer
mb
20260906234307 26 204 0.0 0.0 0.00 0.00 0.00 36 1013.6
20260906233802 27 204 0.0 0.0 0.00 0.00 0.00 33 1013.5
20260906233255 27 204 0.0 0.0 0.00 0.00 0.00 33 1013.6
20260906232749 26 205 0.0 0.0 0.00 0.00 0.00 32 1013.6
20260906232244 26 205 0.0 0.0 0.00 0.00 0.00 34 1013.7
20260906231737 27 205 0.0 0.0 0.00 0.00 0.00 33 1013.7
20260906231232 27 207 0.0 0.0 0.00 0.00 0.00 31 1013.8
20260906230726 27 207 0.0 0.0 0.00 0.00 0.00 32 1013.9
20260906230220 27 206 0.0 0.0 0.00 0.00 0.00 30 1013.9
20260906225713 27 240 0.0 0.0 0.00 0.00 0.00 32 1014.0
20260906225208 27 216 0.0 0.0 0.00 0.00 0.00 31 1014.0
20260906224701 27 221 0.0 0.0 0.00 0.00 0.00 31 1014.0
20260906224155 27 206 0.0 0.0 0.00 0.00 0.00 31 1014.0
20260906223650 27 213 0.0 0.0 0.00 0.00 0.00 31 1014.0
20260906223144 27 228 0.0 0.0 0.00 0.00 0.00 30 1014.0
20260906222637 27 218 0.0 0.0 0.00 0.00 0.00 31 1014.0
20260906222132 27 223 0.0 0.0 0.00 0.00 0.00 30 1014.0
20260906221625 27 214 0.0 0.0 0.00 0.00 0.00 30 1014.0
20260906221119 27 213 0.0 0.0 0.00 0.00 0.00 31 1014.1
20260906220613 27 210 0.0 0.0 0.00 0.00 0.00 31 1014.2
20260906220107 27 201 0.0 0.0 0.00 0.00 0.00 30 1014.1
20260906215602 27 206 0.0 0.0 0.00 0.00 0.00 29 1014.1
20260906215055 27 208 0.0 0.0 0.00 0.00 0.00 30 1014.1
20260906214550 28 219 0.0 0.0 0.00 0.00 0.00 31 1014.0
20260906214043 28 222 0.0 0.0 0.00 0.00 0.00 31 1013.9
20260906213537 28 227 0.0 0.0 0.00 0.00 0.00 29 1014.0
20260906213031 27 218 0.0 0.0 0.00 0.00 0.00 30 1014.1
20260906212526 27 211 0.0 0.0 0.00 0.00 0.00 31 1014.0
20260906212019 27 211 0.0 0.0 0.00 0.00 0.00 30 1014.1
20260906211513 27 209 0.0 0.0 0.00 0.00 0.00 31 1014.1
20260906211007 27 216 0.0 0.0 0.00 0.00 0.00 31 1014.2
20260906210501 27 219 0.0 0.0 0.00 0.00 0.00 30 1014.2
20260906205955 27 197 0.0 0.0 0.00 0.00 0.00 28 1014.1
20260906205449 28 179 0.0 0.0 0.00 0.00 0.00 30 1014.2
20260906204943 28 181 0.0 0.0 0.00 0.00 0.00 29 1014.2
20260906204437 27 202 0.0 0.0 0.00 0.00 0.00 29 1014.4
20260906203931 27 187 0.0 0.0 0.00 0.00 0.00 30 1014.4
20260906203425 27 180 0.0 0.0 0.00 0.00 0.00 31 1014.5
20260906202919 27 192 0.0 0.0 0.00 0.00 0.00 29 1014.5
20260906202413 27 207 0.0 0.0 0.00 0.00 0.00 28 1014.6
20260906201907 27 219 0.0 0.0 0.00 0.00 0.00 27 1014.7
20260906201401 27 216 0.0 0.0 0.00 0.00 0.00 27 1014.8
20260906200855 27 186 0.0 0.0 0.00 0.00 0.00 29 1015.0
20260906200349 27 221 0.0 0.0 0.00 0.00 0.00 29 1015.1
20260906195843 27 226 0.0 0.0 0.00 0.00 0.00 28 1015.1
20260906195337 26 215 0.0 0.0 0.00 0.00 0.00 30 1015.2
20260906194831 26 208 0.0 0.0 0.00 0.00 0.00 28 1015.2
20260906194325 26 227 0.0 0.0 0.00 0.00 0.00 30 1015.4
20260906193819 26 216 0.0 0.0 0.00 0.00 0.00 29 1015.4
20260906193313 27 218 0.0 0.0 0.00 0.00 0.00 28 1015.2
20260906192807 27 214 0.0 0.0 0.00 0.00 0.00 28 1015.2
20260906192301 27 215 0.0 0.0 0.00 0.00 0.00 27 1015.2
20260906191755 27 218 0.0 0.0 0.00 0.00 0.00 26 1015.2
20260906191249 27 228 0.0 0.0 0.00 0.00 0.00 28 1015.2
20260906190743 27 227 0.0 0.0 0.00 0.00 0.00 29 1015.2
20260906190237 27 210 0.0 0.0 0.00 0.00 0.00 27 1015.3
20260906185731 27 227 0.0 0.0 0.00 0.00 0.00 28 1015.3
20260906185225 27 206 0.0 0.0 0.00 0.00 0.00 29 1015.4
20260906184719 27 209 0.0 0.0 0.00 0.00 0.00 25 1015.4
20260906184213 27 223 0.0 0.0 0.00 0.00 0.00 29 1015.6
20260906183707 27 213 0.0 0.0 0.00 0.00 0.00 26 1015.6
20260906183201 27 224 0.0 0.0 0.00 0.00 0.00 28 1015.6
20260906182655 27 207 0.0 0.0 0.00 0.00 0.00 27 1015.7
20260906182149 27 197 0.0 0.0 0.00 0.00 0.00 28 1015.7
20260906181643 27 217 0.0 0.0 0.00 0.00 0.00 28 1015.8
20260906181137 26 224 0.0 0.0 0.00 0.00 0.00 28 1015.8
20260906180631 26 204 0.0 0.0 0.00 0.00 0.00 27 1016.0
20260906180125 26 216 0.0 0.0 0.00 0.00 0.00 29 1016.0
20260906175619 26 211 0.0 0.0 0.00 0.00 0.00 27 1016.2
20260906175113 26 211 0.0 0.0 0.00 0.00 0.00 28 1016.2
20260906174607 26 226 0.0 0.0 0.00 0.00 0.00 28 1016.4
20260906174101 26 217 0.0 0.0 0.00 0.00 0.00 28 1016.5
20260906173555 26 203 0.0 0.0 0.00 0.00 0.00 26 1016.6
20260906173049 26 211 0.0 0.0 0.00 0.00 0.00 26 1016.6
20260906172543 26 223 0.0 0.0 0.00 0.00 0.00 26 1016.6
20260906172037 26 210 0.0 0.0 0.00 0.00 0.00 27 1016.6
20260906171531 26 206 0.0 0.0 0.00 0.00 0.00 29 1016.6
20260906171025 26 211 0.0 0.0 0.00 0.00 0.00 27 1016.7
20260906170519 26 213 0.0 0.0 0.00 0.00 0.00 26 1016.7
20260906170013 26 205 0.0 0.0 0.00 0.00 0.00 27 1016.7
20260906165507 26 199 0.0 0.0 0.00 0.00 0.00 28 1016.7
20260906165001 26 200 0.0 0.0 0.00 0.00 0.00 28 1016.8
20260906164455 25 200 0.0 0.0 0.00 0.00 0.00 28 1016.6
20260906163949 25 215 0.0 0.0 0.00 0.00 0.00 28 1016.7
20260906163443 25 214 0.0 0.0 0.00 0.00 0.00 30 1016.8
20260906162937 25 213 0.0 0.0 0.00 0.00 0.00 30 1016.8
20260906162431 25 214 0.0 0.0 0.00 0.00 0.00 30 1016.8
20260906161925 25 219 0.0 0.0 0.00 0.00 0.00 32 1016.9
20260906161419 25 230 0.0 0.0 0.00 0.00 0.00 32 1016.8
20260906160913 25 206 0.0 0.0 0.00 0.00 0.00 31 1016.9
20260906160407 25 192 0.0 0.0 0.00 0.00 0.00 33 1017.0
20260906155901 25 174 0.0 0.0 0.00 0.00 0.00 38 1017.0
20260906155355 24 135 0.0 0.0 0.00 0.00 0.00 33 1017.0
20260906154849 23 135 0.0 0.0 0.00 0.00 0.00 39 1017.1
20260906154343 23 135 0.0 0.0 0.00 0.00 0.00 34 1017.1
20260906153837 23 136 0.0 0.0 0.00 0.00 0.00 34 1017.2
20260906153331 22 193 0.0 0.0 0.00 0.00 0.00 36 1017.3
20260906152825 22 193 0.0 0.0 0.00 0.00 0.00 35 1017.3
20260906152319 22 193 0.0 0.0 0.00 0.00 0.00 37 1017.3
20260906151813 21 193 0.0 0.0 0.00 0.00 0.00 38 1017.3
20260906151307 21 193 0.0 0.0 0.00 0.00 0.00 41 1017.4
20260906150801 20 193 0.0 0.0 0.00 0.00 0.00 42 1017.4
20260906150255 20 193 0.0 0.0 0.00 0.00 0.00 41 1017.4
20260906145749 20 187 0.0 0.0 0.00 0.00 0.00 40 1017.4
20260906145243 20 171 0.0 0.0 0.00 0.00 0.00 38 1017.4
20260906144737 19 150 0.0 0.0 0.00 0.00 0.00 40 1017.4
20260906144231 18 150 0.0 0.0 0.00 0.00 0.00 43 1017.4
20260906143725 18 150 0.0 0.0 0.00 0.00 0.00 40 1017.4
20260906143219 18 149 0.0 0.0 0.00 0.00 0.00 44 1017.4
20260906142713 17 149 0.0 0.0 0.00 0.00 0.00 44 1017.5
20260906142207 17 148 0.0 0.0 0.00 0.00 0.00 43 1017.5
20260906141701 18 146 0.0 0.0 0.00 0.00 0.00 39 1017.4
20260906141155 17 146 0.0 0.0 0.00 0.00 0.00 40 1017.5
20260906140649 17 147 0.0 0.0 0.00 0.00 0.00 41 1017.5
20260906140143 17 146 0.0 0.0 0.00 0.00 0.00 39 1017.6
20260906135637 17 146 0.0 0.0 0.00 0.00 0.00 41 1017.5
20260906135131 17 139 0.0 0.0 0.00 0.00 0.00 39 1017.5
20260906134625 16 160 0.0 0.0 0.00 0.00 0.00 40 1017.5
20260906134119 16 192 0.0 0.0 0.00 0.00 0.00 41 1017.5
20260906133613 16 192 0.0 0.0 0.00 0.00 0.00 41 1017.6
20260906133107 16 158 0.0 0.0 0.00 0.00 0.00 39 1017.6
20260906132601 17 157 0.0 0.0 0.00 0.00 0.00 38 1017.5
20260906132055 17 132 0.0 0.0 0.00 0.00 0.00 37 1017.4
20260906131549 16 149 0.0 0.0 0.00 0.00 0.00 37 1017.3
20260906131043 16 149 0.0 0.0 0.00 0.00 0.00 37 1017.2
20260906130537 16 142 0.0 0.0 0.00 0.00 0.00 37 1017.2
20260906130031 16 153 0.0 0.0 0.00 0.00 0.00 37 1017.3
20260906125525 16 145 0.0 0.0 0.00 0.00 0.00 37 1017.3
20260906125019 16 158 0.0 0.0 0.00 0.00 0.00 37 1017.3
20260906124513 16 156 0.0 0.0 0.00 0.00 0.00 37 1017.3
20260906124007 16 155 0.0 0.0 0.00 0.00 0.00 37 1017.3
20260906123501 17 144 0.0 0.0 0.00 0.00 0.00 36 1017.2
20260906122955 17 136 0.0 0.0 0.00 0.00 0.00 36 1017.2
20260906122449 17 158 0.0 0.0 0.00 0.00 0.00 35 1017.2
20260906121943 17 131 0.0 0.0 0.00 0.00 0.00 34 1017.1
20260906121437 17 139 0.0 0.0 0.00 0.00 0.00 34 1017.2
20260906120931 17 147 0.0 0.0 0.00 0.00 0.00 34 1017.2
20260906120425 17 152 0.0 0.0 0.00 0.00 0.00 34 1017.2
20260906115919 17 143 0.0 0.0 0.00 0.00 0.00 33 1017.1
20260906115413 17 136 0.0 0.0 0.00 0.00 0.00 33 1017.1
20260906114907 18 137 0.0 0.0 0.00 0.00 0.00 33 1017.2
20260906114401 18 139 0.0 0.0 0.00 0.00 0.00 32 1017.1
20260906113855 17 139 0.0 0.0 0.00 0.00 0.00 33 1017.1
20260906113349 17 137 0.0 0.0 0.00 0.00 0.00 33 1017.1
20260906112843 17 130 0.0 0.0 0.00 0.00 0.00 34 1017.1
20260906112337 17 161 0.0 0.0 0.00 0.00 0.00 35 1017.2
20260906111831 16 167 0.0 0.0 0.00 0.00 0.00 36 1017.2
20260906111325 16 187 0.0 0.0 0.00 0.00 0.00 37 1017.2
20260906110819 16 191 0.0 0.0 0.00 0.00 0.00 37 1017.2
20260906110313 16 196 0.0 0.0 0.00 0.00 0.00 37 1017.3
20260906105807 16 196 0.0 0.0 0.00 0.00 0.00 38 1017.2
20260906105305 17 200 0.0 0.0 0.00 0.00 0.00 37 1017.1
20260906104755 17 158 0.0 0.0 0.00 0.00 0.00 35 1017.1
20260906104249 18 170 0.0 0.0 0.00 0.00 0.00 33 1017.1
20260906103743 18 137 0.0 0.0 0.00 0.00 0.00 32 1017.0
20260906103237 18 136 0.0 0.0 0.00 0.00 0.00 31 1017.0
20260906102731 18 138 0.0 0.0 0.00 0.00 0.00 32 1017.0
20260906102225 18 122 0.0 0.0 0.00 0.00 0.00 32 1017.0
20260906101719 19 128 0.0 0.0 0.00 0.00 0.00 31 1016.9
20260906101213 19 127 0.0 0.0 0.00 0.00 0.00 31 1016.9
20260906100707 19 128 0.0 0.0 0.00 0.00 0.00 31 1016.9
20260906100201 19 131 0.0 0.0 0.00 0.00 0.00 31 1016.8
20260906095655 19 128 0.0 0.0 0.00 0.00 0.00 32 1016.8
20260906095149 18 133 0.0 0.0 0.00 0.00 0.00 31 1016.8
20260906094643 18 129 0.0 0.0 0.00 0.00 0.00 32 1016.7
20260906094137 18 137 0.0 0.0 0.00 0.00 0.00 32 1016.7
20260906093631 18 124 0.0 0.0 0.00 0.00 0.00 33 1016.7
20260906093125 18 149 0.0 0.0 0.00 0.00 0.00 32 1016.6
20260906092619 18 157 0.0 0.0 0.00 0.00 0.00 32 1016.6
20260906092113 18 140 0.0 0.0 0.00 0.00 0.00 32 1016.5
20260906091607 18 144 0.0 0.0 0.00 0.00 0.00 31 1016.5
20260906091101 18 149 0.0 0.0 0.00 0.00 0.00 31 1016.4
20260906090555 18 141 0.0 0.0 0.00 0.00 0.00 32 1016.4
20260906090049 18 145 0.0 0.0 0.00 0.00 0.00 31 1016.4
20260906085543 18 142 0.0 0.0 0.00 0.00 0.00 31 1016.3
20260906085037 18 143 0.0 0.0 0.00 0.00 0.00 31 1016.3
20260906084531 18 137 0.0 0.0 0.00 0.00 0.00 31 1016.3
20260906084025 18 151 0.0 0.0 0.00 0.00 0.00 32 1016.2
20260906083519 18 154 0.0 0.0 0.00 0.00 0.00 31 1016.2
20260906083013 19 142 0.0 0.0 0.00 0.00 0.00 30 1016.2
20260906082507 19 143 0.0 0.0 0.00 0.00 0.00 30 1016.3
20260906082001 20 144 0.0 0.0 0.00 0.00 0.00 30 1016.2
20260906081455 20 133 0.0 0.0 0.00 0.00 0.00 28 1016.3
20260906080949 20 133 0.0 0.0 0.00 0.00 0.00 28 1016.3
20260906080443 20 139 0.0 0.0 0.00 0.00 0.00 28 1016.3
20260906075937 20 138 0.0 0.0 0.00 0.00 0.00 28 1016.3
20260906075431 20 139 0.0 0.0 0.00 0.00 0.00 29 1016.3
20260906074925 20 142 0.0 0.0 0.00 0.00 0.00 29 1016.4
20260906074419 20 137 0.0 0.0 0.00 0.00 0.00 28 1016.3
20260906073913 20 134 0.0 0.0 0.00 0.00 0.00 29 1016.3
20260906073407 20 144 0.0 0.0 0.00 0.00 0.00 28 1016.3
20260906072901 20 137 0.0 0.0 0.00 0.00 0.00 29 1016.4
20260906072355 20 164 0.0 0.0 0.00 0.00 0.00 29 1016.3
20260906071849 20 131 0.0 0.0 0.00 0.00 0.00 28 1016.2
20260906071343 20 135 0.0 0.0 0.00 0.00 0.00 30 1016.2
20260906070837 20 159 0.0 0.0 0.00 0.00 0.00 30 1016.3
20260906070331 20 143 0.0 0.0 0.00 0.00 0.00 29 1016.3
20260906065825 20 140 0.0 0.0 0.00 0.00 0.00 29 1016.3
20260906065319 20 136 0.0 0.0 0.00 0.00 0.00 29 1016.3
20260906064813 20 126 0.0 0.0 0.00 0.00 0.00 30 1016.3
20260906064307 19 148 0.0 0.0 0.00 0.00 0.00 31 1016.3
20260906063801 18 169 0.0 0.0 0.00 0.00 0.00 33 1016.2
20260906063255 18 163 0.0 0.0 0.00 0.00 0.00 34 1016.3
20260906062749 18 182 0.0 0.0 0.00 0.00 0.00 34 1016.3
20260906062243 19 173 0.0 0.0 0.00 0.00 0.00 33 1016.3
20260906061737 19 159 0.0 0.0 0.00 0.00 0.00 32 1016.3
20260906061231 18 164 0.0 0.0 0.00 0.00 0.00 33 1016.3
20260906060725 18 170 0.0 0.0 0.00 0.00 0.00 34 1016.4
20260906060219 18 174 0.0 0.0 0.00 0.00 0.00 34 1016.4
20260906055713 17 184 0.0 0.0 0.00 0.00 0.00 37 1016.4
20260906055207 17 165 0.0 0.0 0.00 0.00 0.00 39 1016.4
20260906054701 17 172 0.0 0.0 0.00 0.00 0.00 37 1016.4
20260906054155 18 183 0.0 0.0 0.00 0.00 0.00 36 1016.4
20260906053649 18 202 0.0 0.0 0.00 0.00 0.00 37 1016.4
20260906053143 18 212 0.0 0.0 0.00 0.00 0.00 36 1016.3
20260906052637 18 217 0.0 0.0 0.00 0.00 0.00 35 1016.4
20260906052131 18 236 0.0 0.0 0.00 0.00 0.00 34 1016.4
20260906051625 18 247 0.0 0.0 0.00 0.00 0.00 34 1016.3
20260906051119 18 249 0.0 0.0 0.00 0.00 0.00 35 1016.3
20260906050613 18 214 0.0 0.0 0.00 0.00 0.00 36 1016.3
20260906050107 18 212 0.0 0.0 0.00 0.00 0.00 37 1016.2
20260906045601 18 186 0.0 0.0 0.00 0.00 0.00 35 1016.2
20260906045055 19 174 0.0 0.0 0.00 0.00 0.00 35 1016.2
20260906044549 19 163 0.0 0.0 0.00 0.00 0.00 33 1016.2
20260906044043 18 168 0.0 0.0 0.00 0.00 0.00 35 1016.2
20260906043537 19 157 0.0 0.0 0.00 0.00 0.00 35 1016.2
20260906043031 20 150 0.0 0.0 0.00 0.00 0.00 33 1016.1
20260906042525 20 174 0.0 0.0 0.00 0.00 0.00 32 1016.1
20260906042019 21 163 0.0 0.0 0.00 0.00 0.00 30 1016.1
20260906041513 21 161 0.0 0.0 0.00 0.00 0.00 29 1016.1
20260906041007 21 160 0.0 0.0 0.00 0.00 0.00 29 1016.1
20260906040501 21 163 0.0 0.0 0.00 0.00 0.00 30 1016.0
20260906035955 21 164 0.0 0.0 0.00 0.00 0.00 29 1016.1
20260906035449 21 152 0.0 0.0 0.00 0.00 0.00 31 1016.1
20260906034943 20 158 0.0 0.0 0.00 0.00 0.00 34 1016.0
20260906034437 21 162 0.0 0.0 0.00 0.00 0.00 34 1015.9
20260906033931 21 157 0.0 0.0 0.00 0.00 0.00 34 1015.9
20260906033425 20 160 0.0 0.0 0.00 0.00 0.00 35 1015.9
20260906032919 19 176 0.0 0.0 0.00 0.00 0.00 40 1015.9
20260906032413 18 179 0.0 0.0 0.00 0.00 0.00 41 1015.9
20260906031907 19 185 0.0 0.0 0.00 0.00 0.00 41 1015.9
20260906031401 18 201 0.0 0.0 0.00 0.00 0.00 42 1015.9
20260906030855 18 194 0.0 0.0 0.00 0.00 0.00 45 1015.9
20260906030349 19 205 0.0 0.0 0.00 0.00 0.00 45 1015.8
20260906025843 18 219 0.0 0.0 0.00 0.00 0.00 44 1015.8
20260906025337 18 220 0.0 0.0 0.00 0.00 0.00 46 1015.7
20260906024831 18 220 0.0 0.0 0.00 0.00 0.00 47 1015.6
20260906024325 19 220 0.0 0.0 0.00 0.00 0.00 46 1015.6
20260906023819 20 230 0.0 0.0 0.00 0.00 0.00 45 1015.5
20260906023313 20 230 0.0 0.0 0.00 0.00 0.00 45 1015.4
20260906022807 21 230 0.0 0.0 0.00 0.00 0.00 44 1015.3
20260906022301 21 230 0.0 0.0 0.00 0.00 0.00 41 1015.2
20260906021755 22 230 0.0 0.0 0.00 0.00 0.00 41 1015.2
20260906021249 23 230 0.0 0.0 0.00 0.00 0.00 37 1015.2
20260906020743 25 230 0.0 0.0 0.00 0.00 0.00 33 1015.2
20260906020237 25 230 0.0 0.0 0.00 0.00 0.00 27 1015.1
20260906015731 26 230 0.0 0.0 0.00 0.00 0.00 27 1015.1
20260906015225 26 230 0.0 0.0 0.00 0.00 0.00 27 1015.2
20260906014719 26 230 0.0 0.0 0.00 0.00 0.00 26 1015.2
20260906014213 27 230 0.0 0.0 0.00 0.00 0.00 25 1015.2
20260906013707 27 230 0.0 0.0 0.00 0.00 0.00 24 1015.2
20260906013201 27 230 0.0 0.0 0.00 0.00 0.00 23 1015.2
20260906012655 27 230 0.0 0.0 0.00 0.00 0.00 21 1015.3
20260906012149 27 230 0.0 0.0 0.00 0.00 0.00 21 1015.2
20260906011643 27 230 0.0 0.0 0.00 0.00 0.00 22 1015.2
20260906011137 28 230 0.0 0.0 0.00 0.00 0.00 23 1015.3
20260906010631 28 230 0.0 0.0 0.00 0.00 0.00 23 1015.3
20260906010125 28 230 0.0 0.0 0.00 0.00 0.00 22 1015.3
20260906005619 28 230 0.0 0.0 0.00 0.00 0.00 21 1015.3
20260906005113 28 230 0.0 0.0 0.00 0.00 0.00 21 1015.3
20260906004607 28 230 0.0 0.0 0.00 0.00 0.00 22 1015.2
20260906004101 28 232 0.0 0.0 0.00 0.00 0.00 21 1015.1
20260906003555 28 234 0.0 0.0 0.00 0.00 0.00 21 1015.1
20260906003049 28 226 0.0 0.0 0.00 0.00 0.00 21 1015.1
20260906002543 28 224 0.0 0.0 0.00 0.00 0.00 21 1015.0
20260906002037 29 233 0.0 0.0 0.00 0.00 0.00 21 1015.0
20260906001531 29 233 0.0 0.0 0.00 0.00 0.00 21 1015.0
20260906001025 29 228 0.0 0.0 0.00 0.00 0.00 20 1014.9
20260906000519 29 229 0.0 0.0 0.00 0.00 0.00 20 1014.9
20260906000013 29 219 0.0 0.0 0.00 0.00 0.00 21 1015.0
20260905235507 30 217 0.0 0.0 0.00 0.00 0.00 22 1014.9
20260905235001 30 215 0.0 0.0 0.00 0.00 0.00 20 1014.9